This demonstration page uses our WeatherBlox Daily Observations layout. Learn more.

Left ArrowRight Arrow

39.08367, -84.50855

Hourly Observations for August 16, 2020

Temp ( °F °C ) Dew Point ( °F °C ) Humidity (%) Winds ( mph kmh ) Pressure ( in mb ) Visibility ( mi km ) Precip ( " mm )
12:35 am 00:35 Mostly Clear with Mist and Fog 72 22.2 70 21.1 94 94 N N/A 29.92 1013 2 3 N/A
12:49 am 00:49 Mostly Clear with Mist and Fog 72 22 70 21 94 94 N N/A 29.92 1013 2 3 N/A
12:53 am 00:53 Mostly Clear with Mist and Fog 71 21.7 70 21.1 96 96 N N/A 29.92 1013 2 3 N/A
1:04 am 01:04 Mostly Cloudy with Fog 71 21.7 70 21.1 96 96 N N/A 29.93 1013 1 1 N/A
1:14 am 01:14 Clear with Mist and Fog 70 21.1 69 20.6 97 97 N N/A 29.93 1013 1 2 N/A
1:31 am 01:31 Mostly Cloudy with Fog 70 21.1 69 20.6 97 97 N N/A 29.94 1014 1 1 N/A
1:37 am 01:37 Mostly Clear with Mist and Fog 69 20.6 69 20.6 100 100 N N/A 29.94 1014 1 2 N/A
1:42 am 01:42 Mostly Clear with Mist and Fog 71 21.7 68 20 90 90 N N/A 29.94 1014 3 5 N/A
1:53 am 01:53 Mostly Clear with Mist and Fog 69 20.6 68 20 96 96 N N/A 29.93 1014 2 3 N/A
1:57 am 01:57 Clear with Mist and Fog 69 20.6 68 20 96 96 N N/A 29.94 1014 1 1 N/A
2:09 am 02:09 Clear with Mist and Fog 69 20.6 68 20 96 96 N N/A 29.94 1014 3 4 N/A
2:24 am 02:24 Mostly Cloudy with Mist and Fog 70 21.1 69 20.6 97 97 N N/A 29.94 1014 4 6 N/A
2:48 am 02:48 Partly Cloudy with Mist and Fog 70 21 68 20 94 94 N N/A 29.94 1014 2 3 N/A
2:53 am 02:53 Partly Cloudy with Mist and Fog 69 20.6 68 20 96 96 N N/A 29.93 1014 1 2 N/A
3:04 am 03:04 Mostly Clear with Fog 69 20.6 68 20 96 96 N N/A 29.93 1013 1 1 N/A
3:11 am 03:11 Mostly Cloudy with Fog 69 20.6 68 20 96 96 N N/A 29.93 1013 0 0 N/A
3:17 am 03:17 Mostly Cloudy with Mist and Fog 68 20 67 19.4 96 96 N N/A 29.93 1013 1 2 N/A
3:20 am 03:20 Mostly Clear with Mist and Fog 68 20 67 19.4 96 96 N N/A 29.93 1013 3 4 N/A
3:27 am 03:27 Mostly Clear 69 20.6 68 20 96 96 N N/A 29.93 1013 7 11 N/A
3:53 am 03:53 Clear with Mist and Fog 69 20.6 68 20 96 96 N N/A 29.92 1013 6 10 N/A
4:10 am 04:10 Clear with Mist and Fog 68 20 67 19.4 96 96 NNE 3 6 29.92 1013 2 3 N/A
4:19 am 04:19 Clear 68 20 67 19.4 96 96 N N/A 29.92 1013 7 11 N/A
4:38 am 04:38 Clear with Mist and Fog 67 19.4 66 18.9 97 97 N N/A 29.92 1013 2 2 N/A
4:53 am 04:53 Clear with Mist and Fog 67 19.4 66 18.9 97 97 N N/A 29.92 1013 2 2 N/A
5:16 am 05:16 Clear with Mist and Fog 67 19.4 66 18.9 97 97 N N/A 29.92 1013 4 6 N/A
5:43 am 05:43 Mostly Clear with Mist and Fog 67 19.4 66 18.9 97 97 N N/A 29.93 1014 3 5 N/A
5:53 am 05:53 Partly Cloudy with Mist and Fog 67 19.4 66 18.9 97 97 N N/A 29.92 1013 6 10 N/A
6:01 am 06:01 Mostly Cloudy 67 19.4 66 18.9 97 97 N N/A 29.93 1014 7 11 N/A
6:53 am 06:53 Cloudy with Mist and Fog 69 20.6 67 19.4 93 93 N N/A 29.93 1014 6 10 N/A
7:51 am 07:51 Cloudy with Mist and Fog 70 21 66 19 88 88 SE 5 7 29.95 1014 6 10 N/A
7:53 am 07:53 Cloudy with Mist and Fog 69 20.6 67 19.4 93 93 SE 5 7 29.94 1014 5 8 N/A
8:53 am 08:53 Cloudy with Mist and Fog 69 20.6 68 20 96 96 SSE 3 6 29.95 1014 3 5 N/A
9:53 am 09:53 Cloudy with Mist and Fog 71 21.7 69 20.6 94 94 S 6 9 29.95 1014 5 8 N/A
10:53 am 10:53 Partly Cloudy 76 24.4 71 21.7 85 85 S 5 7 29.94 1014 10 16 N/A
11:53 am 11:53 Sunny 80 26.7 70 21.1 71 71 N N/A 29.94 1014 10 16 N/A
12:53 pm 12:53 Partly Cloudy 83 28.3 70 21.1 65 65 W 13 20 29.93 1014 10 16 N/A
1:53 pm 13:53 Mostly Cloudy 82 27.8 69 20.6 65 65 NW 13 20 29.93 1014 10 16 N/A
2:53 pm 14:53 Mostly Cloudy 86 30 68 20 55 55 N 13 20 29.93 1014 10 16 N/A
3:53 pm 15:53 Partly Cloudy 85 29.4 65 18.3 51 51 N 15 24 29.92 1013 10 16 N/A
4:53 pm 16:53 Sunny 86 30 60 15.6 42 42 N 10 17 29.92 1013 10 16 N/A
5:53 pm 17:53 Mostly Sunny 84 28.9 61 16.1 46 46 NW 13 20 29.93 1013 10 16 N/A
6:53 pm 18:53 Partly Cloudy 83 28.3 60 15.6 46 46 NW 12 19 29.92 1013 10 16 N/A
7:53 pm 19:53 Sunny 81 27.2 60 15.6 49 49 NNW 9 15 29.93 1014 10 16 N/A
8:53 pm 20:53 Clear 78 25.6 59 15 52 52 NW 7 11 29.96 1015 10 16 N/A
9:53 pm 21:53 Clear 76 24.4 59 15 56 56 NNW 5 7 29.97 1015 10 16 N/A
10:53 pm 22:53 Clear 68 20 61 16.1 78 78 N N/A 29.97 1015 10 16 N/A
11:53 pm 23:53 Clear 65 18.3 61 16.1 87 87 N N/A 29.99 1016 10 16 N/A

Powered by AerisWeather